Weather History for Newark, NJ

Change the Weather History Date:

Friday, June 15, 2012

  Actual Average Record
Temperature  
Mean Temperature 70 °F 72 °F  
Max Temperature 80 °F 82 °F 101 °F (1994)
Min Temperature 60 °F 63 °F 48 °F (1933)
Degree Days  
Heating Degree Days 0 0  
Month to date heating degree days 14 15  
Since 1 June heating degree days 14 15  
Since 1 July heating degree days 3707 4870  
Cooling Degree Days 5 8  
Month to date cooling degree days 67 92  
Year to date cooling degree days 200 168  
Since 1 June cooling degree days 67 92  
Growing Degree Days 20 (Base 50)    
Moisture  
Dew Point 53 °F    
Average Humidity 57    
Maximum Humidity 78    
Minimum Humidity 35    
Precipitation  
Precipitation 0.00 in 0.13 in 1.17 in (1964)
Month to date precipitation 3.38 2.12  
Year to date precipitation 16.42 21.01  
Snow  
Snow 0.00 in 0.00 in 0.00 in (2002)
Month to date snowfall 0.0 0.0  
Since 1 July snowfall 8.8 28.5  
Snow Depth 0.00 in    
Sea Level Pressure  
Sea Level Pressure 30.27 in    
Wind  
Wind Speed 6 mph (ENE)    
Max Wind Speed 16 mph    
Max Gust Speed 24 mph    
Visibility 10 miles    
Events      
T = Trace of Precipitation, MM = Missing Value Source: NWS Daily Summary

Daily Weather History Graph

Daily Weather History Graph

Search for Another Location

Airport:

Trip Planner

Search our weather history database for the weather conditions in past years. The results will help you decide how hot, cold, wet, or windy it might be!

Date:

Astronomy

Jun. 15, 2012 Rise Set
Actual Time 5:25 AM EDT 8:29 PM EDT
Civil Twilight 4:51 AM EDT 9:03 PM EDT
Nautical Twilight 4:09 AM EDT 9:45 PM EDT
Astronomical Twilight 3:19 AM EDT 10:35 PM EDT
Moon 2:38 AM EDT (6/15) 5:06 PM EDT (6/15)
Length of Visible Light 16h 11m
Length of Day
15h 04m
Waning Crescent, 14% of the Moon is Illuminated
Jun 15
Waning Crescent
Jun 19
New
Jun 26
First Quarter
Jul 3
Full
Jul 10
Last Quarter

Hourly Weather History & Observations

Time (EDT) Temp. Dew Point Humidity Pressure Visibility Wind Dir Wind Speed Gust Speed Precip Events Conditions
12:51 AM 65.3 °F 57.9 °F 77% 30.26 in 10.0 mi Calm Calm - N/A   Mostly Cloudy
1:51 AM 65.7 °F 57.2 °F 74% 30.25 in 10.0 mi Calm Calm - N/A   Mostly Cloudy
2:51 AM 64.0 °F 57.0 °F 78% 30.25 in 10.0 mi Calm Calm - N/A   Scattered Clouds
3:51 AM 63.0 °F 55.0 °F 75% 30.25 in 10.0 mi Calm Calm - N/A   Scattered Clouds
4:51 AM 60.1 °F 53.1 °F 78% 30.24 in 10.0 mi North 4.6 mph - N/A   Scattered Clouds
5:51 AM 64.0 °F 57.9 °F 80% 30.26 in 10.0 mi NNW 5.8 mph - N/A   Mostly Cloudy
6:51 AM 64.9 °F 57.9 °F 78% 30.27 in 9.0 mi NNW 5.8 mph - N/A   Mostly Cloudy
7:51 AM 68.0 °F 57.0 °F 68% 30.27 in 10.0 mi North 6.9 mph - N/A   Mostly Cloudy
8:51 AM 72.0 °F 54.0 °F 53% 30.30 in 10.0 mi North 6.9 mph - N/A   Scattered Clouds
9:51 AM 73.4 °F 48.2 °F 41% 30.28 in 10.0 mi NE 8.1 mph - N/A   Partly Cloudy
10:51 AM 75.9 °F 48.9 °F 38% 30.28 in 10.0 mi North 10.4 mph - N/A   Scattered Clouds
11:51 AM 77.0 °F 50.0 °F 39% 30.27 in 10.0 mi NNE 9.2 mph 19.6 mph N/A   Partly Cloudy
12:51 PM 79.0 °F 52.0 °F 39% 30.27 in 10.0 mi North 9.2 mph 16.1 mph N/A   Partly Cloudy
1:51 PM 78.1 °F 50.0 °F 37% 30.27 in 10.0 mi ENE 8.1 mph 16.1 mph N/A   Scattered Clouds
2:51 PM 78.8 °F 48.2 °F 34% 30.26 in 10.0 mi East 8.1 mph - N/A   Scattered Clouds
3:51 PM 79.0 °F 48.9 °F 35% 30.25 in 10.0 mi ESE 10.4 mph - N/A   Scattered Clouds
4:51 PM 75.2 °F 51.8 °F 44% 30.25 in 10.0 mi SE 9.2 mph 18.4 mph N/A   Partly Cloudy
5:51 PM 73.9 °F 46.9 °F 38% 30.25 in 10.0 mi SSE 8.1 mph 18.4 mph N/A   Scattered Clouds
6:51 PM 72.0 °F 48.9 °F 44% 30.27 in 10.0 mi SSE 9.2 mph - N/A   Scattered Clouds
7:51 PM 71.1 °F 51.1 °F 49% 30.28 in 10.0 mi SE 8.1 mph - N/A   Scattered Clouds
8:51 PM 69.1 °F 54.0 °F 58% 30.27 in 10.0 mi SSE 4.6 mph - N/A   Scattered Clouds
9:51 PM 66.9 °F 55.9 °F 68% 30.28 in 10.0 mi South 4.6 mph - N/A   Partly Cloudy
10:51 PM 68.0 °F 55.0 °F 63% 30.30 in 10.0 mi SE 3.5 mph - N/A   Scattered Clouds
11:51 PM 66.9 °F 54.0 °F 63% 30.30 in 10.0 mi SSE 4.6 mph - N/A   Partly Cloudy